This demonstration page uses our WeatherBlox Daily Observations layout. Learn more.

Hourly Observations for October 11, 2017

Temp ( °F °C ) Dew Point ( °F °C ) Humidity (%) Winds ( mph kmh ) Pressure ( in mb ) Visibility ( mi km ) Precip ( " mm )
12:54 am 00:54 Clear 36 2.2 33 0.6 89 89 N 3 6 30.24 1024 10 16.09344 0 0
1:54 am 01:54 Clear 35 1.7 32 0 89 89 Calm 30.24 1024 10 16.09344 0 0
2:54 am 02:54 Clear 35 1.7 32 0 89 89 Calm 30.24 1024 10 16.09344 0 0
3:54 am 03:54 Clear 35 1.7 32 0 89 89 Calm 30.24 1024 10 16.09344 0 0
4:54 am 04:54 Clear 31 -0.6 29 -1.7 92 92 N 5 7 30.24 1024 10 16.09344 0 0
5:54 am 05:54 Clear with Mist and Fog 33 0.6 31 -0.6 92 92 Calm 30.24 1024 6 9.656064 0 0
6:54 am 06:54 Clear 32 0 30 -1.1 92 92 Calm 30.24 1024 10 16.09344 0 0
7:54 am 07:54 Sunny 32 0 30 -1.1 92 92 Calm 30.24 1024 9 14.484096 0 0
8:54 am 08:54 Sunny 36 2.2 34 1.1 93 93 Calm 30.27 1025 10 16.09344 0 0
9:54 am 09:54 Sunny 42 5.6 37 2.8 82 82 Calm 30.24 1024 10 16.09344 0 0
10:54 am 10:54 Sunny 48 8.9 37 2.8 66 66 N 3 6 30.24 1024 10 16.09344 0 0
11:54 am 11:54 Sunny 53 11.7 36 2.2 52 52 N 6 9 30.21 1023 10 16.09344 0 0
12:54 pm 12:54 Sunny 57 13.9 36 2.2 45 45 SSE 6 9 30.21 1023 10 16.09344 0 0
1:54 pm 13:54 Sunny 60 15.6 37 2.8 42 42 SE 7 11 30.15 1021 10 16.09344 0 0
2:54 pm 14:54 Sunny 62 16.7 36 2.2 38 38 S 9 15 30.12 1020 10 16.09344 0 0
3:54 pm 15:54 Sunny 64 17.8 34 1.1 33 33 SE 6 9 30.12 1020 10 16.09344 0 0
4:54 pm 16:54 Sunny 64 17.8 34 1.1 33 33 SE 7 11 30.09 1019 10 16.09344 0 0
5:54 pm 17:54 Sunny 63 17.2 35 1.7 35 35 SSE 9 15 30.09 1019 10 16.09344 0 0
6:54 pm 18:54 Clear 57 13.9 37 2.8 47 47 SSE 6 9 30.09 1019 10 16.09344 0 0
7:54 pm 19:54 Clear 54 12.2 39 3.9 57 57 SE 7 11 30.09 1019 10 16.09344 0 0
8:54 pm 20:54 Clear 50 10 39 3.9 66 66 SSE 5 7 30.09 1019 10 16.09344 0 0
9:54 pm 21:54 Clear 50 10 38 3.3 63 63 S 5 7 30.09 1019 10 16.09344 0 0
10:54 pm 22:54 Clear 45 7.2 38 3.3 77 77 S 6 9 30.09 1019 10 16.09344 0 0
11:54 pm 23:54 Clear 44 6.7 38 3.3 79 79 S 8 13 30.09 1019 10 16.09344 0 0

Powered by AerisWeather